Mpanda Airport

Jump to: basic info | weather | comments

Related pages: nearby airports | nearby navaids | notams | map

Basic information (top)

Codes: HTMP
Location: lon -6.350000, lat 31.083000, elev 3,520 ft / 1,073 m msl
Status: small_airport

Weather (top)

Current conditions for Sumbawanga Airport 103nm (191km) SSE (rec'd 2014/10/23 19:00Z):

HTSU 231900Z 11003KT 9999 FEW018 18/16 Q1021

Airport forecast for Julius Nyerere International Airport 485nm (899km) E (rec'd 2014/10/26 00:54Z):

TAF TAF HTDA 252200Z 2600/2706 00000KT SCT023 
      BECMG 2604/2612 06010KT BKN026 
      BECMG 2615/2618 08015KT FEW024 
     FM262100 00000KT 9999 SCT023

Latest comments (top)

re: Uwanja wa ndege Mpanda: Thanks God Mpanda is on the right path, ... [read]

Uwanja wa ndege Mpanda: Uwanja ni mzuri saana, [read]

matengenezo: uwanja ukikamilika utakuwa mzuri.mmejitahidi. [read]

More... (top)

See also NOTAMs and nearby airports and navaids, or visit the Mpanda Airport page at the main OurAirports website..